Regional Weather Roundup
Issued by NWS Cleveland, OH

Home | Current Version | Previous Version | Text Only | Print | Product List | Glossary Off
Versions: 1 2 3 4 5 6 7 8 9 10 11 12 13 14 15 16 17 18 19 20 21 22 23 24 25 26 27 28 29 30 31 32 33 34 35 36 37 38 39 40 41 42 43 44 45 46 47 48 49 50

000
ASUS41 KCLE 211210
RWRCLE
OHIO REGIONAL WEATHER ROUNDUP
NATIONAL WEATHER SERVICE CLEVELAND, OH
800 AM EDT MON APR 21 2014

NOTE: "FAIR" INDICATES FEW OR NO CLOUDS BELOW 12,000 FEET WITH NO
SIGNIFICANT WEATHER AND/OR OBSTRUCTIONS TO VISIBILITY.

OHZ001>008-015>018-024>027-034-035-043-044-211300-
   NORTHWEST OHIO

CITY           SKY/WX    TMP DP  RH WIND       PRES   REMARKS
DEFIANCE       SUNNY     47  38  71 CALM      30.04F
FINDLAY        MOSUNNY   51  39  63 S6        30.04S
TOLEDO EXPRESS SUNNY     47  41  80 CALM      30.03F
TOLEDO EXEC    SUNNY     51  40  65 SW3       30.05S
LIMA           MOSUNNY   55  39  54 S7        30.04F
$$

OHZ009>014-019>023-028>033-038-089-211300-
   NORTHEAST OHIO

CITY           SKY/WX    TMP DP  RH WIND       PRES   REMARKS
CLE-HOPKINS    MOSUNNY   56  31  38 S8        30.08S
CLE-LAKEFRONT  SUNNY     56  30  37 SE13      30.04S
CUY CO. ARPT   PTSUNNY   59  30  33 S12       30.07S
LORAIN-ELYRIA  SUNNY     55  34  45 S6        30.06S
ASHTABULA      SUNNY     51  31  46 S8        30.08F
AKRON-CANTON   MOSUNNY   56  30  36 S3        30.08S
WOOSTER        SUNNY     48  40  73 CALM      30.08S
MANSFIELD      SUNNY     54  39  57 S6        30.08R
YOUNGSTOWN     MOSUNNY   52  30  43 SE7       30.08F
$$

OHZ042-051>053-060>062-070>072-077>081-211300-
  SOUTHWEST OHIO

CITY           SKY/WX    TMP DP  RH WIND       PRES   REMARKS
CINC-COVINGTON PTSUNNY   51  45  79 CALM      30.07S
CINC-LUNKEN    SUNNY     44  44 100 CALM      30.09S
HAMILTON       MOSUNNY   47  45  93 CALM      30.09R
DAYTON         PTSUNNY   57  44  62 CALM      30.07S
WRIGHT-PAT AFB MOSUNNY   48  43  83 CALM      30.07S
DAYTON GENERAL SUNNY     55  43  63 S5        30.06S
WILMINGTON     SUNNY     53  44  71 S3        30.08R
$$

OHZ036-037-039>041-045>050-054>059-063>069-073>076-082>088-211300-
  CENTRAL AND SOUTHEAST OHIO

CITY           SKY/WX    TMP DP  RH WIND       PRES   REMARKS
COLUMBUS       PTSUNNY   52  39  61 CALM      30.07F
OSU AIRPORT    SUNNY     49  43  80 E3        30.07F
BOLTON FIELD   SUNNY     48  45  87 CALM      30.08S
RICKENBACK AFB SUNNY     48  42  79 CALM      30.07S
NEWARK         SUNNY     45  39  79 CALM      30.08S
MARION         MOSUNNY   49  42  77 S6        30.07S
LANCASTER      SUNNY     47  40  76 CALM      30.08S
ZANESVILLE     SUNNY     46  38  73 CALM      30.09S
NEW PHILLY     SUNNY     45  37  73 CALM      30.10S
$$



USA.gov is the U.S. government's official web portal to all federal, state and local government web resources and services.